"STATION_ID","USDM_WEEK","SMVWC_5_CM_MEAN","SMANOM_5_CM_MEAN","SMPERC_5_CM_30COUNTS","SMPERC_5_CM_70COUNTS","SMVWC_10_CM_MEAN","SMANOM_10_CM_MEAN","SMPERC_10_CM_30COUNTS","SMPERC_10_CM_70COUNTS","SMVWC_20_CM_MEAN","SMANOM_20_CM_MEAN","SMPERC_20_CM_30COUNTS","SMPERC_20_CM_70COUNTS","SMVWC_50_CM_MEAN","SMANOM_50_CM_MEAN","SMPERC_50_CM_30COUNTS","SMPERC_50_CM_70COUNTS","SMVWC_100_CM_MEAN","SMANOM_100_CM_MEAN","SMPERC_100_CM_30COUNTS","SMPERC_100_CM_70COUNTS","SMVWC_TOP_MEAN","SMANOM_TOP_MEAN","SMPERC_TOP_30COUNTS","SMPERC_TOP_70COUNTS","SMVWC_COLUMN_MEAN","SMANOM_COLUMN_MEAN","SMPERC_COLUMN_30COUNTS","SMPERC_COLUMN_70COUNTS"
1010,20100216,0.19,0.884,0,1,0.208,0.783,0,1,0.251,0.527,0,1,0.233,0.423,0,0.17,0.233,1.08,0,1,0.2,0.869,0,1,NA,NA,NA,NA
1010,20100223,0.177,0.498,0,0.887,0.207,0.682,0,1,0.251,0.502,0,1,0.24,0.421,0,0,0.245,0.736,0,1,0.192,0.613,0,1,0.224,0.674,0,1
1010,20100302,0.194,0.702,0,1,0.209,0.713,0,1,0.253,0.514,0,1,0.242,0.47,0,0.56,0.246,0.594,0,1,0.202,0.766,0,1,0.229,0.81,0,1
1010,20100309,0.203,0.953,0,1,0.215,0.854,0,1,0.261,0.597,0,1,0.251,0.562,0,1,0.252,0.596,0,1,0.209,0.964,0,1,0.236,0.975,0,1
1010,20100316,0.2,1.198,0,1,0.217,1.163,0,1,0.262,0.716,0,1,0.255,0.597,0,1,0.257,0.769,0,1,0.209,1.282,0,1,0.238,1.072,0,1
1010,20100323,0.177,1.192,0,1,0.211,1.339,0,1,0.257,0.789,0,1,0.251,0.619,0,1,0.259,1.016,0,1,0.194,1.397,0,1,0.231,1.144,0,1
1010,20100330,0.158,1.348,0,1,0.204,1.683,0,1,0.252,1.035,0,1,0.246,0.633,0,1,0.26,1.221,0,1,0.181,1.666,0,1,0.224,1.402,0,1
1010,20100406,0.137,1.596,0,1,0.196,2.416,0,1,0.246,1.412,0,1,0.243,0.745,0,1,0.261,1.652,0,1,0.167,2.225,0,1,0.217,1.798,0,1
1010,20100413,0.115,1.98,0,1,0.187,3.377,0,1,0.237,1.859,0,1,0.239,1.176,0,1,0.261,2.321,0,1,0.151,2.828,0,1,0.208,2.421,0,1
1010,20100420,0.094,2.049,0,1,0.174,3.659,0,1,0.219,2.348,0,1,0.231,1.602,0,1,0.26,3.373,0,1,0.134,3.143,0,1,0.195,2.979,0,1
1010,20100427,0.115,3.777,0,1,0.159,3.876,0,1,0.204,2.601,0,1,0.226,1.751,0,1,0.253,4.185,0,1,0.138,3.951,0,1,0.191,3.273,0,1
1010,20100504,0.109,3.524,0,1,0.15,3.896,0,1,0.198,3.246,0,1,0.212,1.714,0,1,0.241,4.863,0,1,0.13,3.894,0,1,0.182,3.672,0,1
1010,20100511,0.081,2.447,0,1,0.132,3.44,0,1,0.187,3.74,0,1,0.198,1.552,0,1,0.218,4.901,0,1,0.107,3.01,0,1,0.163,3.22,0,1
1010,20100518,0.066,2.116,0,1,0.118,2.932,0,1,0.173,3.587,0,1,0.185,1.303,0,1,0.185,4.045,0,1,0.092,2.652,0,1,0.145,2.786,0,1
1010,20100525,0.058,1.878,0,1,0.11,2.63,0,1,0.163,3.154,0,1,0.174,1.059,0,1,0.165,3.392,0,1,0.084,2.45,0,1,0.134,2.343,0,1
1010,20100601,0.051,1.343,0,1,0.102,2.213,0,1,0.154,2.543,0,1,0.162,0.705,0,1,0.147,2.632,0,1,0.077,1.858,0,1,0.124,1.753,0,1
1010,20100608,0.047,1.041,0,1,0.098,1.937,0,1,0.147,2.177,0,1,0.153,0.469,0,1,0.132,1.821,0,1,0.072,1.508,0,1,0.115,1.415,0,1
1010,20100615,0.042,0.733,0,0.988,0.092,1.674,0,1,0.139,1.658,0,1,0.143,0.205,0,0.756,0.12,1.235,0,1,0.067,1.199,0,1,0.107,1.129,0,1
1010,20100622,0.038,0.321,0,0.595,0.088,1.415,0,1,0.134,1.354,0,1,0.138,0.078,0,0.113,0.113,1.014,0,1,0.063,0.82,0,1,0.102,0.893,0,1
1010,20100629,0.036,-0.092,0,0,0.085,0.925,0,1,0.13,1.115,0,1,0.134,0.006,0,0,0.109,0.865,0,1,0.061,0.355,0,0.708,0.099,0.642,0,1
1010,20100706,0.049,0.055,0.012,0,0.082,0.475,0,0.804,0.124,0.505,0,0.899,0.128,-0.285,0.589,0,0.103,0.518,0,1,0.065,0.166,0,0.143,0.097,0.26,0,0.494
1010,20100713,0.043,-0.252,0.554,0,0.082,0.127,0,0,0.124,0.232,0,0.095,0.127,-0.266,0.667,0,0.102,0.291,0,0.369,0.063,-0.083,0,0,0.095,-0.054,0,0
1010,20100720,0.112,0.125,0.625,0.375,0.093,0.044,0.179,0.22,0.15,0.437,0,0.375,0.154,0.069,0.613,0.298,0.073,-0.338,0.512,0,0.103,0.094,0.601,0.375,0.116,0.038,0.298,0.31
1010,20100727,0.148,0.315,0,0.179,0.11,0.029,0.185,0,0.188,0.682,0,0.613,0.172,0.164,0,0,0.046,-0.821,1,0,0.129,0.21,0.048,0.119,0.133,0.051,0.185,0
1010,20100803,0.218,1.336,0,0.94,0.138,0.515,0.286,0.577,0.25,1.4,0,0.708,0.243,1.034,0,0.673,0.141,0.636,0.345,0.655,0.178,1.017,0.006,0.661,0.198,1.259,0.036,0.661
1010,20100810,0.19,1.188,0,1,0.137,0.706,0,0.768,0.246,1.791,0,1,0.226,0.835,0,0.988,0.139,0.769,0,0.988,0.164,1.039,0,1,0.187,1.302,0,1
1010,20100817,0.172,1.108,0,0.857,0.126,0.758,0,0.982,0.223,1.74,0,1,0.188,0.426,0,0.214,0.102,-0.089,0.315,0.018,0.149,1.012,0,0.851,0.162,0.908,0,0.815
1010,20100824,0.162,1.179,0,0.923,0.13,1.267,0,1,0.219,2.369,0,1,0.177,0.396,0,0.311,0.087,-0.47,0.982,0,0.146,1.268,0,0.97,0.155,1.084,0,0.982
1010,20100831,0.181,1.38,0,0.929,0.122,1.161,0,1,0.177,1.715,0,1,0.163,0.154,0,0.045,0.079,-0.686,1,0,0.152,1.394,0,0.976,0.144,0.758,0,0.916
1010,20100907,0.124,0.546,0,0.5,0.104,0.694,0,0.815,0.164,1.52,0,1,0.173,0.213,0.077,0.494,0.074,-0.674,1,0,0.114,0.595,0,0.494,0.128,0.247,0,0.363
1010,20100914,0.085,-0.011,0,0,0.09,0.116,0,0,0.148,0.91,0,1,0.165,0.101,0,0.06,0.065,-0.768,1,0,0.088,0.042,0,0,0.111,-0.342,0.815,0
1010,20100921,0.065,-0.251,0.464,0,0.084,-0.047,0.006,0,0.14,0.531,0,0.78,NA,NA,NA,NA,0.06,-0.699,1,0,0.075,-0.176,0.411,0,NA,NA,NA,NA
1010,20100928,0.098,0.665,0.208,0.786,0.078,-0.125,0.232,0,0.136,0.279,0,0.036,NA,NA,NA,NA,0.057,-0.563,1,0,0.088,0.366,0.208,0.78,NA,NA,NA,NA
1010,20101005,0.074,0.338,0,0.464,0.078,0.01,0,0,0.133,0.243,0,0.155,NA,NA,NA,NA,0.054,-0.503,1,0,0.076,0.196,0,0.089,NA,NA,NA,NA
1010,20101012,0.063,0.257,0,0.137,0.073,-0.009,0,0,0.129,0.166,0,0,NA,NA,NA,NA,0.051,-0.553,1,0,0.068,0.117,0,0,NA,NA,NA,NA
1010,20101019,0.053,0.264,0,0.44,0.071,0.028,0,0,0.127,0.212,0,0.202,NA,NA,NA,NA,0.048,-0.649,1,0,0.062,0.121,0,0,NA,NA,NA,NA
1010,20101026,0.047,0.324,0,0.887,0.066,-0.008,0,0,0.124,0.157,0,0.012,NA,NA,NA,NA,0.047,-0.661,1,0,0.057,0.093,0,0,NA,NA,NA,NA
1010,20101102,0.043,0.255,0,0.345,0.064,0.024,0,0,0.122,0.153,0,0,NA,NA,NA,NA,0.044,-0.634,1,0,0.054,0.087,0,0,NA,NA,NA,NA
1010,20101109,0.037,0.111,0,0.03,0.061,0.035,0,0,0.12,0.15,0,0,NA,NA,NA,NA,0.044,-0.549,1,0,0.049,0.037,0,0,NA,NA,NA,NA
1010,20101116,0.032,-0.107,0.161,0,0.057,-0.03,0.143,0,0.115,0.055,0,0,NA,NA,NA,NA,0.04,-0.484,1,0,0.044,-0.109,0.238,0,NA,NA,NA,NA
1010,20101123,0.031,-0.196,0.554,0,0.056,-0.029,0.071,0,0.114,0.091,0,0,NA,NA,NA,NA,0.038,-0.463,1,0,0.044,-0.131,0.345,0,NA,NA,NA,NA
1010,20101130,0.026,-0.424,0.982,0,0.052,-0.078,0.44,0,0.11,-0.01,0.024,0,NA,NA,NA,NA,0.034,-0.486,1,0,0.039,-0.214,0.911,0,NA,NA,NA,NA
1010,20101207,0.028,-0.241,0.298,0,0.052,-0.366,0.976,0,0.109,-0.07,0.119,0,NA,NA,NA,NA,0.031,-0.656,1,0,0.04,-0.307,0.94,0,NA,NA,NA,NA
1010,20101214,0.029,-0.507,1,0,0.053,-0.519,0.887,0,0.11,-0.176,0.44,0,NA,NA,NA,NA,0.032,-0.614,1,0,0.041,-0.442,1,0,NA,NA,NA,NA
1010,20101221,0.032,-0.836,1,0,0.053,-0.763,1,0,0.11,-0.325,1,0,NA,NA,NA,NA,0.032,-0.677,1,0,0.043,-0.847,1,0,NA,NA,NA,NA
1010,20101228,0.035,-1.166,1,0,0.052,-0.946,1,0,0.108,-0.369,1,0,NA,NA,NA,NA,0.031,-0.782,1,0,0.044,-1.09,1,0,NA,NA,NA,NA
1010,20110104,0.062,-0.932,1,0,0.05,-1.031,1,0,0.105,-0.575,1,0,NA,NA,NA,NA,0.026,-0.969,1,0,0.056,-1.022,1,0,NA,NA,NA,NA
1010,20110111,0.076,-0.627,0.982,0,0.053,-0.951,1,0,0.105,-0.451,1,0,NA,NA,NA,NA,0.025,-1.057,1,0,0.065,-0.781,1,0,NA,NA,NA,NA
1010,20110118,0.072,-0.565,1,0,0.057,-0.834,1,0,0.106,-0.419,1,0,NA,NA,NA,NA,0.026,-1.117,1,0,0.065,-0.658,1,0,NA,NA,NA,NA
1010,20110125,0.063,-0.603,1,0,0.061,-0.584,1,0,0.109,-0.393,1,0,NA,NA,NA,NA,0.028,-1.006,1,0,0.063,-0.639,1,0,NA,NA,NA,NA
1010,20110201,0.05,-0.605,1,0,0.06,-0.556,1,0,0.109,-0.408,0.899,0,NA,NA,NA,NA,0.026,-0.675,1,0,0.055,-0.642,1,0,NA,NA,NA,NA
1010,20110208,0.045,-0.481,0.993,0,0.057,-0.754,1,0,0.106,-0.508,0.994,0,NA,NA,NA,NA,0.023,-0.74,1,0,0.052,-0.689,1,0,NA,NA,NA,NA
1010,20110215,0.044,-0.491,1,0,0.06,-1.029,1,0,0.11,-0.955,1,0,0.124,-0.436,0.638,0,0.027,-0.745,1,0,0.052,-0.687,1,0,NA,NA,NA,NA
1010,20110222,0.041,-0.807,1,0,0.061,-1.069,1,0,0.113,-0.968,1,0,0.126,-0.53,1,0,0.03,-1.014,1,0,0.051,-0.92,1,0,0.074,-0.831,1,0
1010,20110301,0.037,-0.923,1,0,0.057,-1.143,1,0,0.111,-1.081,1,0,0.121,-0.615,1,0,0.04,-1.163,1,0,0.048,-1.023,1,0,0.073,-0.927,1,0
1010,20110308,0.046,-0.89,1,0,0.059,-1.057,1,0,0.113,-1.052,1,0,0.123,-0.646,1,0,0.047,-1.225,1,0,0.053,-0.977,1,0,0.078,-1.002,1,0
1010,20110315,0.04,-0.968,1,0,0.061,-1.094,1,0,0.115,-1.105,1,0,0.126,-0.659,1,0,0.05,-1.395,1,0,0.051,-1.166,1,0,0.078,-1.04,1,0
1010,20110322,0.036,-0.885,1,0,0.06,-1.119,1,0,0.117,-1.149,1,0,0.129,-0.615,1,0,0.053,-1.672,1,0,0.049,-1.069,1,0,0.079,-0.959,1,0
1010,20110329,0.033,-0.692,1,0,0.057,-0.927,1,0,0.116,-1.087,1,0,0.128,-0.618,1,0,0.054,-1.28,1,0,0.046,-0.888,1,0,0.078,-0.845,1,0
1010,20110405,0.032,-0.639,1,0,0.058,-0.934,1,0,0.118,-0.867,1,0,0.131,-0.588,1,0,0.055,-1.266,1,0,0.045,-0.872,1,0,0.079,-0.793,1,0
1010,20110412,0.03,-0.649,1,0,0.053,-1.226,1,0,0.115,-0.866,1,0,0.129,-0.546,1,0,0.055,-1.401,1,0,0.042,-0.997,1,0,0.076,-0.879,1,0
1010,20110419,0.032,-0.601,1,0,0.054,-1.195,1,0,0.115,-0.973,1,0,0.13,-0.296,0.518,0,0.055,-1.615,1,0,0.043,-0.993,1,0,0.077,-0.901,1,0
1010,20110426,0.03,-0.534,0.988,0,0.054,-1.227,1,0,0.117,-0.906,1,0,0.133,-0.144,0.012,0,0.058,-1.689,1,0,0.042,-0.931,1,0,0.078,-0.779,1,0
1010,20110503,0.028,-0.494,0.958,0,0.051,-1.212,1,0,0.114,-0.984,1,0,0.132,-0.104,0.065,0,0.058,-1.858,1,0,0.039,-0.915,1,0,0.077,-0.888,1,0
1010,20110510,0.027,-0.427,0.958,0,0.05,-1.216,1,0,0.113,-1.124,1,0,0.132,-0.084,0.131,0,0.057,-2.064,1,0,0.039,-0.854,1,0,0.076,-0.87,1,0
1010,20110517,0.026,-0.405,0.911,0,0.049,-1.117,1,0,0.112,-1.231,1,0,0.133,-0.045,0.065,0,0.057,-2.139,1,0,0.038,-0.816,1,0,0.076,-0.814,1,0
1010,20110524,0.026,-0.326,0.702,0,0.047,-0.975,1,0,0.111,-1.287,1,0,0.134,-0.021,0.012,0,0.058,-2.133,1,0,0.037,-0.745,1,0,0.075,-0.704,1,0
1010,20110531,0.027,-0.255,0.494,0,0.047,-0.792,1,0,0.111,-1.086,1,0,0.136,0.036,0.006,0,0.059,-1.979,1,0,0.037,-0.569,1,0,0.076,-0.592,1,0
1010,20110607,0.025,-0.293,0.601,0,0.046,-0.679,1,0,0.11,-0.975,1,0,0.137,0.056,0,0.006,0.06,-1.732,1,0,0.036,-0.506,1,0,0.076,-0.541,1,0
1010,20110614,0.024,-0.376,0.81,0,0.045,-0.637,1,0,0.109,-0.944,1,0,0.138,0.059,0,0.06,0.06,-1.52,1,0,0.035,-0.509,1,0,0.075,-0.508,1,0
1010,20110621,0.024,-0.394,0.732,0,0.045,-0.573,1,0,0.108,-0.88,1,0,0.139,0.115,0,0.423,0.061,-1.464,1,0,0.034,-0.448,0.982,0,0.075,-0.462,0.976,0
1010,20110628,0.024,-0.449,1,0,0.044,-0.551,1,0,0.107,-0.905,1,0,0.141,0.192,0,0.94,0.062,-1.375,1,0,0.035,-0.626,1,0,0.076,-0.495,0.982,0
1010,20110705,0.044,-0.04,0.345,0.173,0.046,-0.536,1,0,0.105,-1.073,1,0,0.14,0.282,0,0.881,0.059,-1.33,1,0,0.045,-0.424,0.482,0,0.079,-0.526,0.952,0
1010,20110712,0.076,0.151,0,0.232,0.052,-0.436,0.917,0,0.104,-0.986,1,0,0.144,0.214,0,0.25,0.055,-1.314,1,0,0.064,-0.045,0.006,0,0.086,-0.28,0.643,0
1010,20110719,0.104,0.071,0.262,0.131,0.07,-0.288,0.452,0,0.114,-0.218,0.429,0,0.164,0.335,0,0.351,0.058,-0.797,1,0,0.087,-0.034,0.25,0,0.102,-0.146,0.262,0
1010,20110726,0.121,0.036,0.649,0.28,0.088,-0.33,0.72,0,0.119,-0.235,0.952,0,0.194,0.462,0,0.077,0.058,-0.625,1,0,0.105,-0.093,0.714,0.167,0.116,-0.22,0.72,0
1010,20110802,0.165,0.614,0,0.446,0.134,0.402,0,0.149,0.141,-0.06,0.137,0,0.218,0.721,0,0.815,0.067,-0.723,1,0,0.15,0.535,0,0.28,0.145,0.267,0,0.06
1010,20110809,0.109,0.085,0,0.095,0.106,-0.005,0.113,0.024,0.148,0.044,0,0,0.209,0.64,0,0.69,0.073,-0.839,1,0,0.108,0.066,0,0.095,0.129,0.018,0,0
1010,20110816,0.117,0.278,0.161,0.44,0.103,0.132,0.321,0.083,0.139,-0.07,0.048,0,0.232,0.865,0,0.673,0.07,-1.085,1,0,0.11,0.226,0.25,0.327,0.132,0.194,0,0.083
1010,20110823,0.092,-0.012,0,0,0.09,-0.072,0.048,0,0.137,-0.075,0.024,0,0.252,1.272,0,1,0.07,-1.1,1,0,0.091,-0.063,0.006,0,0.128,0.198,0,0
1010,20110830,0.095,0.045,0,0.012,0.083,-0.303,0.744,0,0.131,-0.168,0.369,0,0.249,1.149,0,1,0.068,-1.078,1,0,0.089,-0.076,0,0,0.125,0.114,0,0
1010,20110906,0.07,-0.308,0.601,0,0.078,-0.512,0.988,0,0.128,-0.244,0.738,0,0.264,1.296,0,1,0.067,-0.91,1,0,0.075,-0.357,0.869,0,0.122,0.002,0,0
1010,20110913,0.075,-0.182,0.232,0,0.075,-0.537,1,0,0.123,-0.496,1,0,0.256,1.02,0,1,0.064,-0.811,1,0,0.075,-0.268,0.613,0,0.119,-0.058,0,0
1010,20110920,0.085,0.095,0,0,0.077,-0.34,0.935,0,0.122,-0.504,1,0,NA,NA,NA,NA,0.063,-0.672,1,0,0.081,-0.021,0,0,NA,NA,NA,NA
1010,20110927,0.066,-0.062,0.042,0,0.075,-0.242,0.875,0,0.122,-0.398,1,0,NA,NA,NA,NA,0.064,-0.47,1,0,0.071,-0.151,0.286,0,NA,NA,NA,NA
1010,20111004,0.056,-0.057,0,0,0.072,-0.188,0.637,0,0.12,-0.356,1,0,NA,NA,NA,NA,0.063,-0.377,1,0,0.065,-0.138,0.03,0,NA,NA,NA,NA
1010,20111011,0.053,0.01,0,0,0.068,-0.173,0.583,0,0.116,-0.301,1,0,NA,NA,NA,NA,0.059,-0.408,1,0,0.061,-0.098,0.006,0,NA,NA,NA,NA
1010,20111018,0.045,0,0,0,0.067,-0.111,0.113,0,0.116,-0.202,0.673,0,NA,NA,NA,NA,0.059,-0.424,1,0,0.056,-0.096,0,0,NA,NA,NA,NA
1010,20111025,0.039,-0.018,0,0,0.063,-0.109,0.018,0,0.115,-0.142,0.131,0,NA,NA,NA,NA,0.059,-0.401,1,0,0.051,-0.124,0.006,0,NA,NA,NA,NA
1010,20111101,0.035,-0.054,0.018,0,0.058,-0.177,0.685,0,0.112,-0.181,0.661,0,NA,NA,NA,NA,0.056,-0.406,1,0,0.047,-0.173,0.411,0,NA,NA,NA,NA
1010,20111108,0.032,-0.12,0.262,0,0.055,-0.179,0.839,0,0.109,-0.22,0.929,0,NA,NA,NA,NA,0.053,-0.387,1,0,0.044,-0.217,0.827,0,NA,NA,NA,NA
1010,20111115,0.035,0.022,0.018,0,0.053,-0.16,0.964,0,0.105,-0.289,1,0,NA,NA,NA,NA,0.05,-0.334,1,0,0.044,-0.128,0.333,0,NA,NA,NA,NA
1010,20111122,0.044,0.303,0,0.185,0.054,-0.074,0.482,0,0.105,-0.21,0.958,0,NA,NA,NA,NA,0.049,-0.288,0.994,0,0.049,0.026,0,0,NA,NA,NA,NA
1010,20111129,0.042,0.024,0,0,0.054,-0.046,0.071,0,0.104,-0.201,0.97,0,NA,NA,NA,NA,0.048,-0.27,0.601,0,0.048,-0.024,0,0,NA,NA,NA,NA
1010,20111206,0.041,-0.093,0.084,0,0.053,-0.319,0.905,0,0.103,-0.19,0.994,0,NA,NA,NA,NA,0.046,-0.441,0.97,0,0.047,-0.184,0.53,0,NA,NA,NA,NA
1010,20111213,0.043,-0.341,0.637,0,0.052,-0.487,0.994,0,0.099,-0.293,1,0,NA,NA,NA,NA,0.043,-0.48,1,0,0.048,-0.359,0.884,0,NA,NA,NA,NA
1010,20111220,0.165,0.583,0,0.946,0.115,-0.005,0.071,0,0.147,0.193,0.065,0,NA,NA,NA,NA,0.141,0.667,0.03,0.964,0.14,0.337,0,0.429,NA,NA,NA,NA
1010,20111227,0.138,0.205,0.125,0.345,0.121,0.02,0,0,0.147,0.177,0,0,NA,NA,NA,NA,0.124,0.463,0,0.81,0.13,0.083,0,0,NA,NA,NA,NA
1010,20120103,0.134,0.127,0.048,0,0.12,0.015,0,0,0.149,0.076,0,0,NA,NA,NA,NA,0.118,0.367,0,0.387,0.127,0.023,0,0,NA,NA,NA,NA
1010,20120110,0.124,0.066,0,0,0.117,0.009,0,0,0.15,0.181,0,0,NA,NA,NA,NA,0.114,0.388,0,0.946,0.121,0.002,0,0,NA,NA,NA,NA
1010,20120117,0.11,0.008,0.042,0,0.113,-0.004,0,0,0.15,0.195,0,0,NA,NA,NA,NA,0.11,0.307,0,0.357,0.111,-0.03,0.018,0,NA,NA,NA,NA
1010,20120124,0.108,0.043,0,0,0.11,-0.018,0,0,0.15,0.087,0,0,NA,NA,NA,NA,0.108,0.189,0,0,0.109,-0.018,0,0,NA,NA,NA,NA
1010,20120131,0.099,0.038,0,0,0.108,-0.027,0,0,0.15,0.013,0,0,NA,NA,NA,NA,0.105,0.06,0,0,0.104,-0.056,0,0,NA,NA,NA,NA
1010,20120207,0.088,-0.019,0,0,0.105,-0.101,0,0,0.149,-0.013,0,0,NA,NA,NA,NA,0.103,0.01,0,0,0.096,-0.146,0,0,NA,NA,NA,NA
1010,20120214,0.08,-0.126,0,0,0.102,-0.484,0.053,0,0.149,-0.511,0.834,0,NA,NA,NA,NA,0.102,-0.028,0,0,0.091,-0.249,0,0,NA,NA,NA,NA
1010,20120221,0.079,-0.402,0.745,0,0.088,-0.745,0.939,0,0.146,-0.603,1,0,0.194,0.033,0,0.055,0.092,-0.451,0.697,0,0.084,-0.539,0.861,0,0.12,-0.373,0,0
1010,20120228,0.074,-0.544,1,0,0.088,-0.77,1,0,0.147,-0.675,1,0,0.19,-0.004,0,0,0.092,-0.689,1,0,0.081,-0.639,1,0,0.118,-0.422,0,0
1010,20120306,0.058,-0.739,0.857,0,0.084,-0.766,0.911,0,0.146,-0.679,0.911,0,0.189,-0.016,0.03,0,0.092,-0.817,0.869,0,0.072,-0.736,0.863,0,0.114,-0.537,0.506,0
1010,20120313,0.05,-0.855,1,0,0.08,-0.782,1,0,0.145,-0.7,1,0,0.188,-0.053,0,0,0.092,-0.865,1,0,0.065,-0.925,1,0,0.111,-0.611,1,0
1010,20120320,0.062,-0.577,0.768,0.089,0.076,-0.942,1,0,0.144,-0.817,1,0,0.187,-0.045,0,0,0.092,-1.22,1,0,0.069,-0.789,1,0,0.112,-0.545,1,0
1010,20120327,0.106,0.334,0,0.708,0.077,-0.635,1,0,0.141,-0.746,1,0,0.184,-0.042,0,0,0.089,-0.93,1,0,0.092,-0.136,0.679,0,0.119,-0.286,0.946,0
1010,20120403,0.063,-0.1,0.286,0,0.082,-0.404,1,0,0.144,-0.506,1,0,0.187,0.037,0,0,0.09,-0.784,1,0,0.072,-0.271,1,0,0.113,-0.205,0.565,0
1010,20120410,0.047,-0.202,0.661,0,0.077,-0.45,1,0,0.141,-0.344,0.994,0,0.184,0.143,0,0,0.088,-0.815,1,0,0.062,-0.354,1,0,0.107,-0.196,0.649,0
1010,20120417,0.042,-0.219,0.482,0,0.071,-0.536,1,0,0.136,-0.368,1,0,0.18,0.539,0,0.048,0.086,-0.88,1,0,0.057,-0.419,0.988,0,0.103,-0.111,0.06,0
1010,20120424,0.04,-0.111,0.173,0,0.07,-0.49,0.964,0,0.135,-0.233,0.452,0,0.178,0.717,0,0.786,0.086,-0.874,1,0,0.055,-0.329,0.863,0,0.102,0.009,0,0
1010,20120501,0.035,-0.2,0.149,0,0.066,-0.498,0.97,0,0.132,-0.155,0.042,0,0.176,0.814,0,1,0.086,-0.84,1,0,0.05,-0.378,0.976,0,0.099,0.025,0,0
1010,20120508,0.03,-0.321,0.696,0,0.062,-0.59,1,0,0.129,-0.182,0.125,0,0.17,0.816,0,1,0.086,-0.857,1,0,0.046,-0.49,1,0,0.095,-0.023,0,0
1010,20120515,0.091,3.535,0.196,0.798,0.065,-0.246,0.476,0.161,0.125,-0.282,0.446,0,0.164,0.734,0,0.97,0.082,-0.964,1,0,0.078,1.616,0.202,0.798,0.105,0.652,0,0.798
1010,20120522,0.052,1.343,0,1,0.076,0.622,0,1,0.13,0.299,0,0.577,0.167,0.876,0,1,0.084,-0.797,1,0,0.064,1.011,0,1,0.102,0.637,0,0.976
1010,20120529,0.037,0.407,0,0.5,0.067,0.293,0,0.238,0.13,0.446,0,0.869,0.164,0.746,0,1,0.084,-0.689,1,0,0.052,0.361,0,0.369,0.097,0.429,0,0.214
1010,20120605,0.029,-0.088,0.012,0,0.061,0.02,0,0,0.128,0.439,0,0.869,0.16,0.664,0,1,0.083,-0.64,1,0,0.045,-0.034,0,0,0.092,0.226,0,0
1010,20120612,0.025,-0.274,0.399,0,0.055,-0.159,0.024,0,0.124,0.346,0,0.435,0.159,0.616,0,1,0.083,-0.504,1,0,0.041,-0.215,0.304,0,0.089,0.191,0,0
1010,20120619,0.025,-0.316,0.47,0,0.051,-0.281,0.256,0,0.121,0.17,0,0.024,0.155,0.548,0,1,0.082,-0.467,1,0,0.038,-0.265,0.167,0,0.087,0.121,0,0
1010,20120626,0.027,-0.35,0.786,0,0.049,-0.348,0.393,0,0.118,0.046,0.018,0,0.153,0.508,0,1,0.081,-0.468,0.994,0,0.038,-0.397,0.798,0,0.086,0.027,0,0
1010,20120703,0.035,-0.123,0.06,0.006,0.05,-0.387,0.702,0,0.116,-0.175,0.089,0,0.15,0.676,0,1,0.078,-0.528,1,0,0.043,-0.446,0.929,0,0.086,-0.082,0.089,0
1010,20120710,0.141,1.122,0,0.911,0.102,0.693,0.089,0.911,0.155,2.459,0.083,0.887,0.221,2.877,0,1,0.191,3.732,0.089,0.911,0.122,1.026,0.077,0.911,0.162,1.991,0.089,0.911
1010,20120717,0.143,0.549,0,0.655,0.135,0.878,0,0.631,0.216,2.427,0,1,0.233,1.877,0,0.958,0.168,1.996,0,0.762,0.139,0.717,0,0.78,0.179,1.317,0,1
1010,20120724,0.146,0.321,0,0.232,0.155,0.863,0,0.78,0.24,1.728,0,1,0.188,0.454,0,0.44,0.1,-0.026,0,0,0.151,0.538,0,0.381,0.166,0.696,0,0.583
1010,20120731,0.177,0.722,0,0.479,0.154,0.776,0,0.449,0.243,1.263,0,0.934,0.182,0.248,0.12,0.347,0.097,-0.179,0.257,0,0.166,0.751,0,0.449,0.171,0.717,0,0.383
1010,20120807,0.132,0.346,0,0.339,0.135,0.529,0,0.482,0.237,1.349,0,1,0.191,0.421,0,0.339,0.102,-0.155,0.012,0,0.134,0.439,0,0.381,0.159,0.585,0,0.524
1010,20120814,0.079,-0.271,0.452,0,0.091,-0.227,0.077,0,0.154,0.2,0,0.042,0.132,-0.163,0.006,0,0.094,-0.324,0.732,0,0.085,-0.266,0.423,0,0.11,-0.32,0.393,0
1010,20120821,0.128,0.57,0.205,0.572,0.125,0.993,0.12,0.747,0.166,0.668,0,0.789,0.126,-0.204,0.127,0,0.088,-0.485,0.982,0,0.127,0.733,0.205,0.675,0.127,0.137,0.205,0.398
1010,20120828,0.1,0.139,0.006,0.19,0.091,-0.011,0.006,0,0.146,0.35,0,0.518,0.126,-0.234,0.667,0,0.088,-0.392,0.768,0,0.096,0.08,0.018,0.161,0.11,-0.377,0.532,0
1010,20120904,0.067,-0.362,0.702,0.024,0.082,-0.387,0.952,0,0.137,0.131,0,0,0.12,-0.384,1,0,0.086,-0.4,0.75,0,0.075,-0.374,0.774,0,0.098,-0.891,1,0
1010,20120911,0.095,0.128,0,0.06,0.078,-0.438,1,0,0.132,-0.021,0.036,0,0.116,-0.41,1,0,0.082,-0.379,0.762,0,0.087,-0.01,0,0,0.101,-0.775,1,0
1010,20120918,0.082,0.003,0.03,0,0.08,-0.255,0.536,0,0.131,-0.038,0.024,0,0.115,-0.357,1,0,0.081,-0.337,0.518,0,0.081,-0.049,0.119,0,0.098,-0.711,1,0
1010,20120925,0.053,-0.406,0.988,0,0.076,-0.258,0.982,0,0.13,-0.018,0,0,NA,NA,NA,NA,0.08,-0.237,0.03,0,0.065,-0.373,1,0,NA,NA,NA,NA
1010,20121002,0.052,-0.201,0.488,0,0.07,-0.298,1,0,0.126,-0.128,0.226,0,NA,NA,NA,NA,0.077,-0.186,0.024,0,0.062,-0.268,0.512,0,NA,NA,NA,NA
1010,20121009,0.045,-0.186,0.595,0,0.07,-0.15,0.232,0,0.124,-0.048,0,0,NA,NA,NA,NA,0.075,-0.138,0.006,0,0.058,-0.203,0.494,0,NA,NA,NA,NA
1010,20121016,0.037,-0.255,0.952,0,0.066,-0.182,0.69,0,0.121,-0.043,0,0,NA,NA,NA,NA,0.073,-0.172,0.274,0,0.052,-0.273,1,0,NA,NA,NA,NA
1010,20121023,0.035,-0.186,0.292,0,0.063,-0.159,0.399,0,0.119,-0.014,0,0,NA,NA,NA,NA,0.07,-0.177,0.155,0,0.049,-0.231,0.673,0,NA,NA,NA,NA
1010,20121030,0.033,-0.146,0.423,0,0.059,-0.176,0.726,0,0.116,-0.062,0.006,0,NA,NA,NA,NA,0.069,-0.156,0.048,0,0.046,-0.218,0.702,0,NA,NA,NA,NA
1010,20121106,0.032,-0.108,0.345,0,0.057,-0.144,0.595,0,0.114,-0.063,0,0,NA,NA,NA,NA,0.067,-0.131,0.036,0,0.045,-0.182,0.53,0,NA,NA,NA,NA
1010,20121113,0.031,-0.13,0.333,0,0.055,-0.119,0.554,0,0.112,-0.095,0.286,0,NA,NA,NA,NA,0.065,-0.101,0.042,0,0.043,-0.172,0.673,0,NA,NA,NA,NA
1010,20121120,0.031,-0.161,0.363,0,0.054,-0.09,0.625,0,0.109,-0.101,0.292,0,NA,NA,NA,NA,0.062,-0.091,0.06,0,0.043,-0.163,0.708,0,NA,NA,NA,NA
1010,20121127,0.033,-0.224,0.637,0,0.054,-0.043,0.095,0,0.109,-0.052,0,0,NA,NA,NA,NA,0.062,-0.062,0,0,0.044,-0.122,0.119,0,NA,NA,NA,NA
1010,20121204,0.031,-0.224,0.238,0,0.053,-0.228,0.607,0,0.108,-0.079,0.077,0,NA,NA,NA,NA,0.06,-0.183,0.315,0,0.042,-0.201,0.488,0,NA,NA,NA,NA
1010,20121211,0.03,-0.341,0.643,0,0.052,-0.392,0.988,0,0.107,-0.124,0.345,0,NA,NA,NA,NA,0.06,-0.281,0.357,0,0.041,-0.387,1,0,NA,NA,NA,NA
1010,20121218,0.123,0.236,0.393,0.583,0.102,-0.135,0.417,0.196,0.14,0.115,0.452,0.226,NA,NA,NA,NA,0.09,0.051,0.387,0.054,0.113,0.146,0.387,0.577,NA,NA,NA,NA
1010,20121225,0.173,0.658,0,1,0.145,0.344,0,0.78,0.188,0.753,0,1,NA,NA,NA,NA,0.095,0.096,0,0,0.16,0.497,0,0.988,NA,NA,NA,NA
1010,20130101,0.144,0.276,0.036,0.269,0.135,0.223,0,0.113,0.181,0.571,0,0.369,NA,NA,NA,NA,0.085,-0.094,0.012,0,0.14,0.201,0,0.168,NA,NA,NA,NA
1010,20130108,0.159,0.553,0,0.958,0.141,0.339,0,0.982,0.183,0.605,0,0.619,NA,NA,NA,NA,0.079,-0.18,0,0,0.15,0.398,0,0.958,NA,NA,NA,NA
1010,20130115,NA,NA,NA,NA,0.133,0.3,0,0.994,0.18,0.623,0,1,NA,NA,NA,NA,0.077,-0.228,0.048,0,NA,NA,NA,NA,NA,NA,NA,NA
1010,20130122,NA,NA,NA,NA,0.125,0.168,0,0.101,0.176,0.463,0,0.53,NA,NA,NA,NA,0.076,-0.322,0.899,0,NA,NA,NA,NA,NA,NA,NA,NA
1010,20130129,0.142,0.578,0,0.405,0.138,0.295,0,0.298,0.182,0.355,0,0.137,NA,NA,NA,NA,0.083,-0.166,0.042,0,0.14,0.375,0,0.375,NA,NA,NA,NA
1010,20130205,0.186,1.129,0,1,0.179,0.838,0,1,0.205,0.583,0,1,NA,NA,NA,NA,0.085,-0.156,0.048,0,0.183,0.902,0,1,NA,NA,NA,NA
1010,20130212,0.156,0.634,0,0.952,0.162,0.406,0,0.506,0.202,0.247,0,0.387,NA,NA,NA,NA,0.1,-0.037,0,0,0.159,0.55,0,0.839,NA,NA,NA,NA
1010,20130219,0.162,0.496,0,0.625,0.16,0.144,0,0,0.201,-0.017,0,0,0.16,-0.237,0,0,0.105,-0.202,0.077,0,0.161,0.367,0,0.518,0.158,0.018,0,0
1010,20130226,0.159,0.316,0,0.201,0.158,0.083,0,0,0.202,-0.043,0,0,0.135,-0.473,0.61,0,0.135,-0.285,0.024,0,0.159,0.236,0,0,0.158,0.007,0,0
1010,20130305,0.151,0.278,0,0.006,0.156,0.083,0,0,0.203,-0.051,0,0,0.138,-0.487,0.625,0,0.138,-0.398,0.244,0,0.154,0.228,0,0,0.157,-0.007,0,0
1010,20130312,0.129,0.14,0,0,0.144,0.03,0,0,0.202,-0.046,0.03,0,0.141,-0.502,0.78,0,0.143,-0.39,0.179,0,0.137,0.089,0,0,0.152,-0.083,0,0
1010,20130319,0.116,0.149,0,0.006,0.134,-0.002,0.012,0,0.199,-0.058,0.101,0,0.143,-0.485,0.929,0,0.145,-0.506,0.952,0,0.125,0.072,0,0,0.147,-0.089,0,0
1010,20130326,0.085,-0.006,0,0,0.116,-0.055,0,0,0.194,-0.017,0,0,0.143,-0.462,0.946,0,0.145,-0.304,0.256,0,0.101,-0.024,0,0,0.137,-0.068,0,0
1010,20130402,0.068,-0.034,0.018,0,0.104,0.008,0,0,0.183,0.099,0,0,0.14,-0.483,0.994,0,0.14,-0.152,0,0,0.086,-0.007,0,0,0.127,0.002,0,0
1010,20130409,0.056,0.006,0,0.012,0.095,0.036,0,0,0.167,0.136,0,0,0.13,-0.615,1,0,0.132,-0.124,0,0,0.076,0.011,0,0,0.116,-0.036,0,0
1010,20130416,0.05,0.046,0.012,0.119,0.087,0.014,0,0,0.154,0.105,0,0,0.117,-0.572,1,0,0.123,-0.103,0.03,0,0.068,0.024,0,0.036,0.106,-0.038,0,0
1010,20130423,0.042,-0.033,0.012,0.048,0.082,-0.004,0,0,0.148,0.181,0,0.006,0.11,-0.622,1,0,0.117,-0.051,0,0,0.062,-0.021,0,0.042,0.1,-0.092,0,0
1010,20130430,0.037,-0.101,0.012,0,0.078,0.066,0,0,0.144,0.31,0,0.292,0.106,-0.681,1,0,0.11,-0.065,0.012,0,0.058,-0.028,0,0.012,0.095,-0.151,0,0
1010,20130507,0.032,-0.196,0.208,0,0.072,-0.042,0,0,0.139,0.401,0,0.768,0.102,-0.823,1,0,0.103,-0.157,0.214,0,0.053,-0.149,0.095,0,0.09,-0.288,0.458,0
1010,20130514,0.03,-0.204,0.286,0,0.067,-0.189,0.161,0,0.134,0.338,0,0.595,0.098,-0.955,1,0,0.099,-0.206,0.429,0,0.049,-0.221,0.357,0,0.085,-0.36,0.857,0